Weather History for KALO - February, 2013

Change the Weather History Date:

Friday, February 22, 2013

  Actual Average Record
Temperature  
Mean Temperature 22 °F 26 °F  
Max Temperature 29 °F 35 °F 61 °F (1984)
Min Temperature 15 °F 17 °F -16 °F (1929)
Degree Days  
Heating Degree Days 43 39  
Month to date heating degree days 930 938  
Since 1 July heating degree days 4966 5192  
Cooling Degree Days 0 0  
Month to date cooling degree days 0 0  
Year to date cooling degree days 0 0  
Moisture  
Dew Point 21 °F    
Average Humidity 85    
Maximum Humidity 96    
Minimum Humidity 74    
Precipitation  
Precipitation 0.18 in 0.04 in 1.42 in (1922)
Month to date precipitation 1.17 0.73  
Year to date precipitation 2.47 1.56  
Snow  
Snow 3.50 in 0.20 in 8.40 in (1981)
Month to date snowfall 7.9 6.1  
Since 1 July snowfall 26.7 27.6  
Snow Depth 5.00 in    
Sea Level Pressure  
Sea Level Pressure 29.85 in    
Wind  
Wind Speed 8 mph (North)    
Max Wind Speed 15 mph    
Max Gust Speed 22 mph    
Visibility 4 miles    
Events Fog , Snow    
T = Trace of Precipitation, MM = Missing Value Source: NWS Daily Summary

Daily Weather History Graph

Daily Weather History Graph

Search for Another Location

Airport or City:

Trip Planner

Search our weather history database for the weather conditions in past years. The results will help you decide how hot, cold, wet, or windy it might be!

Date:

Astronomy

Feb. 22, 2013 Rise Set
Actual Time 6:55 AM CST 5:50 PM CST
Civil Twilight 6:27 AM CST 6:19 PM CST
Nautical Twilight 5:54 AM CST 6:52 PM CST
Astronomical Twilight 5:21 AM CST 7:24 PM CST
Moon 3:00 PM CST (2/22) 4:43 AM CST (2/22)
Length of Visible Light 11h 52m
Length of Day
10h 55m
Waxing Gibbous, 90% of the Moon is Illuminated
Feb 22
Waxing Gibbous
Feb 25
Full
Mar 4
Last Quarter
Mar 11
New
Mar 19
First Quarter

Hourly Weather History & Observations

Time (CST) Temp. Windchill Dew Point Humidity Pressure Visibility Wind Dir Wind Speed Gust Speed Precip Events Conditions
12:03 AM 23.0 °F 11.7 °F 21.2 °F 93% 29.89 in 2.5 mi ENE 11.5 mph - 0.00 in Snow Light Snow
12:54 AM 24.1 °F 13.1 °F 21.9 °F 91% 29.92 in 0.8 mi ENE 11.5 mph - 0.04 in Snow Light Snow
1:07 AM 24.8 °F 13.4 °F 21.2 °F 86% 29.87 in 0.2 mi ENE 12.7 mph - 0.02 in Fog , Snow Heavy Snow
1:26 AM 24.8 °F 13.4 °F 21.2 °F 86% 29.86 in 0.5 mi ENE 12.7 mph - 0.04 in Fog , Snow Snow
1:38 AM 24.8 °F 13.4 °F 21.2 °F 86% 29.85 in 1.0 mi ENE 12.7 mph - 0.06 in Snow Light Snow
1:51 AM 24.8 °F 14.0 °F 21.2 °F 86% 29.85 in 0.8 mi ENE 11.5 mph - 0.07 in Snow Light Snow
1:54 AM 24.1 °F 13.1 °F 21.9 °F 91% 29.88 in 0.8 mi ENE 11.5 mph - 0.08 in Snow Light Snow
2:02 AM 24.8 °F 13.4 °F 21.2 °F 86% 29.84 in 1.0 mi ENE 12.7 mph - 0.00 in Snow Light Snow
2:17 AM 24.8 °F 13.4 °F 21.2 °F 86% 29.83 in 2.0 mi East 12.7 mph - 0.00 in Snow Light Snow
2:26 AM 24.8 °F 14.0 °F 21.2 °F 86% 29.83 in 1.5 mi East 11.5 mph - 0.00 in Snow Light Snow
2:54 AM 24.1 °F 13.1 °F 21.9 °F 91% 29.86 in 2.5 mi East 11.5 mph - 0.01 in Snow Light Snow
3:05 AM 24.8 °F 14.0 °F 21.2 °F 86% 29.81 in 3.0 mi East 11.5 mph - 0.00 in Snow Light Snow
3:54 AM 24.1 °F 12.0 °F 21.0 °F 88% 29.82 in 10.0 mi East 13.8 mph - 0.01 in   Overcast
4:54 AM 25.0 °F 13.6 °F 21.0 °F 85% 29.81 in 9.0 mi East 12.7 mph - 0.00 in Snow Light Snow
5:54 AM 24.1 °F 16.0 °F 21.9 °F 91% 29.82 in 4.0 mi East 6.9 mph - 0.00 in Snow Light Snow
6:54 AM 24.1 °F 19.7 °F 21.9 °F 91% 29.82 in 3.0 mi ENE 3.5 mph - 0.01 in Snow Light Snow
7:12 AM 24.8 °F 20.5 °F 21.2 °F 86% 29.79 in 2.0 mi NE 3.5 mph - 0.00 in Snow Light Snow
7:19 AM 24.8 °F 20.5 °F 21.2 °F 86% 29.79 in 1.5 mi ENE 3.5 mph - 0.00 in Snow Light Snow
7:54 AM 24.1 °F - 21.9 °F 91% 29.83 in 1.8 mi Calm Calm - 0.01 in Snow Light Snow
8:04 AM 24.8 °F 20.5 °F 21.2 °F 86% 29.79 in 2.0 mi NNE 3.5 mph - 0.00 in Snow Light Snow
8:31 AM 24.8 °F 19.1 °F 21.2 °F 86% 29.80 in 3.0 mi NNE 4.6 mph - 0.00 in Snow Light Snow
8:46 AM 24.8 °F 19.1 °F 21.2 °F 86% 29.80 in 2.5 mi NE 4.6 mph - 0.00 in Snow Light Snow
8:54 AM 25.0 °F 19.3 °F 21.9 °F 88% 29.83 in 2.0 mi NNE 4.6 mph - 0.00 in Snow Light Snow
9:34 AM 24.8 °F 16.9 °F 21.2 °F 86% 29.79 in 3.0 mi NNE 6.9 mph - 0.00 in Snow Light Snow
9:54 AM 26.6 °F 20.0 °F 21.2 °F 80% 29.79 in 5.0 mi NNE 5.8 mph - N/A   Overcast
10:26 AM 26.6 °F 21.2 °F 23.0 °F 86% 29.80 in 3.0 mi NNE 4.6 mph - 0.00 in Snow Light Snow
10:38 AM 26.6 °F 20.0 °F 23.0 °F 86% 29.81 in 2.0 mi NNE 5.8 mph - 0.00 in Snow Light Snow
10:52 AM 26.6 °F 22.6 °F 23.0 °F 86% 29.81 in 2.0 mi North 3.5 mph - 0.00 in Snow Light Snow
10:54 AM 27.0 °F 23.0 °F 23.0 °F 85% 29.85 in 2.0 mi North 3.5 mph - 0.00 in Snow Light Snow
11:11 AM 26.6 °F - 23.0 °F 86% 29.82 in 2.5 mi Calm Calm - 0.00 in Snow Light Snow
11:38 AM 26.6 °F 22.6 °F 23.0 °F 86% 29.83 in 1.8 mi NNW 3.5 mph - 0.01 in Snow Light Snow
11:54 AM 26.6 °F 22.6 °F 24.8 °F 93% 29.83 in 0.8 mi North 3.5 mph - N/A Snow Light Snow
12:03 PM 26.6 °F 22.6 °F 24.8 °F 93% 29.82 in 1.2 mi North 3.5 mph - 0.00 in Snow Light Snow
12:23 PM 28.4 °F - 24.8 °F 86% 29.83 in 2.5 mi Calm Calm - 0.00 in Snow Light Snow
12:33 PM 28.4 °F 24.6 °F 24.8 °F 86% 29.83 in 3.0 mi NNW 3.5 mph - 0.01 in Snow Light Snow
12:47 PM 28.4 °F 23.3 °F 23.0 °F 80% 29.82 in 4.0 mi NNW 4.6 mph - 0.01 in Snow Light Snow
12:54 PM 28.0 °F 21.7 °F 24.1 °F 85% 29.86 in 2.5 mi NW 5.8 mph - 0.01 in Snow Light Snow
1:02 PM 28.4 °F 21.2 °F 24.8 °F 86% 29.82 in 1.8 mi NW 6.9 mph - 0.00 in Snow Light Snow
1:22 PM 26.6 °F 18.2 °F 21.2 °F 80% 29.82 in 2.0 mi NW 8.1 mph - 0.00 in Snow Light Snow
1:28 PM 28.4 °F 20.4 °F 21.2 °F 74% 29.82 in 3.0 mi NW 8.1 mph - 0.00 in Snow Light Snow
1:54 PM 28.9 °F 20.4 °F 21.9 °F 75% 29.85 in 8.0 mi NW 9.2 mph - 0.00 in   Mostly Cloudy
2:47 PM 28.4 °F 18.5 °F 21.2 °F 74% 29.83 in 10.0 mi WNW 11.5 mph 17.3 mph N/A   Mostly Cloudy
2:54 PM 28.9 °F 19.2 °F 21.0 °F 72% 29.87 in 10.0 mi WNW 11.5 mph - N/A   Mostly Cloudy
3:54 PM 27.0 °F 16.1 °F 19.0 °F 72% 29.89 in 10.0 mi WNW 12.7 mph 19.6 mph N/A   Overcast
4:54 PM 26.1 °F 15.6 °F 19.0 °F 75% 29.91 in 10.0 mi WNW 11.5 mph - N/A   Overcast
5:22 PM 24.8 °F 14.0 °F 19.4 °F 80% 29.88 in 7.0 mi WNW 11.5 mph - N/A   Overcast
5:54 PM 24.1 °F 13.7 °F 19.0 °F 81% 29.93 in 10.0 mi WNW 10.4 mph - N/A   Overcast
6:08 PM 24.8 °F 14.0 °F 17.6 °F 74% 29.89 in 10.0 mi WNW 11.5 mph - N/A   Overcast
6:54 PM 24.1 °F 14.4 °F 18.0 °F 77% 29.95 in 10.0 mi WNW 9.2 mph - N/A   Overcast
7:54 PM 23.0 °F 13.9 °F 18.0 °F 81% 29.95 in 10.0 mi WNW 8.1 mph - N/A   Overcast
8:54 PM 23.0 °F 13.9 °F 17.1 °F 78% 29.96 in 10.0 mi West 8.1 mph - N/A   Overcast
9:54 PM 21.0 °F 13.4 °F 17.1 °F 85% 29.96 in 10.0 mi WSW 5.8 mph - N/A   Overcast
10:54 PM 18.0 °F 7.7 °F 14.0 °F 84% 29.96 in 10.0 mi West 8.1 mph - N/A   Partly Cloudy
11:54 PM 16.0 °F 4.4 °F 12.0 °F 84% 29.96 in 10.0 mi WSW 9.2 mph - N/A   Scattered Clouds